Regional Weather Roundup
Issued by NWS

Home | Current Version | Previous Version | Graphics & Text | Print | Product List | Glossary On
Versions: 1 2 3 4 5 6 7 8 9 10 11 12 13 14 15 16 17 18 19 20 21 22 23 24 25 26 27 28 29 30 31 32 33 34 35 36 37 38 39 40 41 42 43 44 45 46 47 48 49 50
000
ASUS43 KOAX 240210
RWRNE

WEATHER ROUNDUP FOR NEBRASKA
NATIONAL WEATHER SERVICE OMAHA NE
900 PM CDT MON MAY 23 2016

NOTES: SATELLITE DATA IS BEING USED TO AUGMENT CLOUD COVER ABOVE
       12000 FEET.
       "FAIR" INDICATES FEW OR NO CLOUDS BELOW 12,000 FEET WITH NO
       SIGNIFICANT WEATHER AND/OR OBSTRUCTIONS TO VISIBILITY.

  * THESE STATIONS DO NOT REPORT WEATHER SUCH AS RAIN...SNOW OR FOG.

NEZ001>004-019>022-054>056-240300-
NEBRASKA PANHANDLE

CITY           SKY/WX    TMP DP  RH WIND       PRES   REMARKS
SCOTTSBLUFF    CLOUDY    51  46  83 SE14      29.86F
ALLIANCE       CLOUDY    50  47  89 S8        29.86F
CHADRON        PTCLDY    62  36  37 S20G30    29.81R
KIMBALL        CLOUDY    52  42  68 NE10      29.89F
SIDNEY         CLOUDY    52  42  69 NE12      29.88F
$$

NEZ057>060-069>072-079>082-240300-
SOUTHWEST NEBRASKA

CITY           SKY/WX    TMP DP  RH WIND       PRES   REMARKS
NORTH PLATTE   CLEAR     63  47  55 NW3       29.79S HAZE
IMPERIAL       PTCLDY    69  46  43 E3        29.83R
LEXINGTON      CLEAR     71  54  53 CALM      29.77R
MCCOOK         CLEAR     69  50  50 N3        29.78R
OGALLALA       CLOUDY    60  43  53 NW28G36   29.85R
$$

NEZ005>010-023>029-035>040-094-240300-
NORTH CENTRAL NEBRASKA

CITY           SKY/WX    TMP DP  RH WIND       PRES   REMARKS
VALENTINE      MOCLDY    66  42  41 W9        29.77R
AINSWORTH      CLEAR     64  45  49 SW6       29.76R
BROKEN BOW     CLEAR     65  51  60 NW5       29.77R
O`NEILL        CLOUDY    72  53  52 SE3       29.74S
ORD            CLEAR     67  59  75 CALM      29.74R HAZE
THEDFORD       MOCLDY    67  43  41 W8        29.81R
$$

NEZ041-046>049-061>064-073>077-083>087-240300-
SOUTH CENTRAL NEBRASKA

CITY           SKY/WX    TMP DP  RH WIND       PRES   REMARKS
GRAND ISLAND   TSTM      59  56  89 SE8       29.79R
AURORA         CLOUDY    65  62  90 NW24      29.79R
HASTINGS       LGT RAIN  66  63  90 S13       29.76R
HEBRON         CLOUDY    70  62  77 S10       29.76F
HOLDREGE       HAZE      69  59  69 E3        29.77R VSB 3/4
KEARNEY *      MOCLDY    70  64  83 S3        29.77R
YORK           CLOUDY    70  61  73 SE9       29.77R
$$

NEZ011>018-030>034-042>045-240300-
NORTHEAST NEBRASKA

CITY           SKY/WX    TMP DP  RH WIND       PRES   REMARKS
NORFOLK        CLOUDY    68  63  84 SE12      29.75R
ALBION         CLOUDY    68  60  74 S6        29.77R
BLAIR          CLOUDY    68  63  83 S5        29.78R
FREMONT        CLOUDY    67  65  94 SE5       29.78R
TEKAMAH        CLOUDY    65  63  93 SE5       29.76S
WAYNE          CLOUDY    67  64  90 S15       29.78R
$$

NEZ050>053-065>068-078-088>093-240300-
SOUTHEAST NEBRASKA

CITY           SKY/WX    TMP DP  RH WIND       PRES   REMARKS
LINCOLN        CLOUDY    69  61  75 S8        29.78R
OMAHA EPPLEY   CLOUDY    70  63  78 S10       29.76F
BEATRICE       PTCLDY    69  61  75 S12       29.76F
FALLS CITY     CLOUDY    68  62  81 S14       29.82R
NEBRASKA CITY  CLOUDY    67  62  82 S8        29.80S
PLATTSMOUTH    CLOUDY    70  64  81 SE8       29.78F
$$

NEZ044-045-051>053-067-240300-
OMAHA AREA

CITY           SKY/WX    TMP DP  RH WIND       PRES   REMARKS
OMAHA EPPLEY   CLOUDY    70  63  78 S10       29.76F
BLAIR          CLOUDY    68  63  83 S5        29.78R
FREMONT        CLOUDY    67  65  94 SE5       29.78R
MILLARD        PTCLDY    70  62  75 SE5       29.77S
OFFUTT AFB     CLOUDY    69  63  81 SE12      29.77S
PLATTSMOUTH    CLOUDY    70  64  81 SE8       29.78F
WAHOO          MOCLDY    69  64  85 S6        29.78R
$$



USA.gov is the U.S. government's official web portal to all federal, state and local government web resources and services.